SNAP-3 ALICE

Last updated on Thu Nov 21 2024 00:03:39 GMT+0000 (Coordinated Universal Time)

1 40970U 15058G 24325.22720260 .00020878 00000+0 11626-2 0 9998 2 40970 64.7665 193.4378 0138156 254.0782 104.5078 15.05808188 29193
UTC large
Height (km)
Speed (km/s)
/
Latitude / Longitude
Inclination (degrees)
Orbital Period (minutes)
Azimuth
Elevation
Range (km)
Doppler Factor

Next 0 passes for location: London (51.5072 / 0.1276)

Sorry there are no passes over London.